This is the latest recevied weather packets stored in our database for station/object VE3EP-1. If no packets are shown the sender has not sent any weather packets the latest 10 day(s).
| Time | Temp. | Humidity | Pressure | Rain* | Wind** | Luminosity | Snow |
|---|---|---|---|---|---|---|---|
| 1777926128 | 18.33° C | 51% | 1005.7 hPa | 0 mm | - | - | - |
| 1777925528 | 17.78° C | 48% | 1005.8 hPa | 0 mm | - | - | - |
| 1777924928 | 18.33° C | 49% | 1005.8 hPa | 0 mm | - | - | - |
| 1777924328 | 18.33° C | 49% | 1005.9 hPa | 0 mm | - | - | - |
| 1777923728 | 17.22° C | 48% | 1005.9 hPa | 0 mm | - | - | - |
| 1777923127 | 16.67° C | 51% | 1006.2 hPa | 0 mm | - | - | - |
| 1777922528 | 16.11° C | 51% | 1006.3 hPa | 0 mm | - | - | - |
| 1777921928 | 16.11° C | 51% | 1006.5 hPa | 0 mm | - | - | - |
| 1777921328 | 16.67° C | 51% | 1006.6 hPa | 0 mm | - | - | - |
| 1777920729 | 16.11° C | 55% | 1006.7 hPa | 0 mm | - | - | - |
| 1777918329 | 15.56° C | 53% | 1006.9 hPa | 0 mm | - | - | - |
| 1777917728 | 14.44° C | 54% | 1007.3 hPa | 0 mm | - | - | - |
| 1777915929 | 13.89° C | 56% | 1007.5 hPa | 0 mm | - | - | - |
| 1777915328 | 14.44° C | 57% | 1007.4 hPa | 0 mm | - | - | - |
| 1777914129 | 13.33° C | 55% | 1007.9 hPa | 0 mm | - | - | - |
| 1777912928 | 13.33° C | 57% | 1007.8 hPa | 0 mm | - | - | - |
| 1777911729 | 12.22° C | 62% | 1008.2 hPa | 0 mm | - | - | - |
| 1777907529 | 12.22° C | 61% | 1008.6 hPa | 0 mm | - | - | - |
| 1777905728 | 11.67° C | 60% | 1008.6 hPa | 0 mm | - | - | - |
| 1777901528 | 11.11° C | 65% | 1008.7 hPa | 0 mm | - | - | - |
| 1777900930 | 11.11° C | 65% | 1008.9 hPa | 0 mm | - | - | - |
| 1777899128 | 10.56° C | 65% | 1009.1 hPa | 0 mm | - | - | - |
| 1777897928 | 9.44° C | 69% | 1008.9 hPa | 0 mm | - | - | - |
| 1777896728 | 7.78° C | 75% | 1009.1 hPa | 0 mm | - | - | - |
| 1777895528 | 7.22° C | 77% | 1009.2 hPa | 0 mm | - | - | - |
* Rain latest hour (hover to see other rain measurements)
** Current wind speed in m/s (hover to see current wind gust speed)